Location: Chervonnoye
(48.6000°N, 34.4000°E)
Time: 21:16:13
(UTC+00:00)

RS-44 - Pass Details

Date: 02 December 2021
Orbit: 1175 x 1510 km, 82.5° (Epoch: 19 January)

Event Time Altitude Azimuth Distance (km) Brightness Sun altitude
Rises 17:21:03 0° 186° (S) 4,129 ? -34.2°
Reaches altitude 10° 17:23:45 10° 186° (S) 3,139 ? -34.7°
Enters shadow 17:25:18 18° 186° (S) 2,588 ? -34.9°
Exits shadow 17:40:22 - 11° (N) 3,886 ? -37.4°
Sets 17:40:56 0° 11° (N) 4,095 ? -37.5°
